Regional Weather Roundup
Issued by NWS Columbia, SC

Home | Current Version | Previous Version | Text Only | Print | Product List | Glossary On
Versions: 1 2 3 4 5 6 7 8 9 10 11 12 13 14 15 16 17 18 19 20 21 22 23 24 25 26 27 28 29 30 31 32 33 34 35 36 37 38 39 40 41 42 43 44 45 46 47 48 49 50
000
ASUS42 KCAE 302210
RWRCAE
REGIONAL WEATHER ROUNDUP
NATIONAL WEATHER SERVICE COLUMBIA SC
600 PM EDT SAT AUG 30 2014

NOTE: "FAIR" INDICATES FEW OR NO CLOUDS BELOW 12,000 FEET WITH NO
SIGNIFICANT WEATHER AND/OR OBSTRUCTIONS TO VISIBILITY.

NOT ALL STATIONS ARE QUALITY CONTROLLED BY THE NATIONAL
WEATHER SERVICE. USE DATA WITH CAUTION...ESPECIALLY
DEWPOINT OBSERVATIONS.

SCZ001>056-GAZ040-063>065-077-302300-
...UPSTATE SOUTH CAROLINA...

CITY           SKY/WX    TMP DP  RH WIND       PRES   REMARKS
ANDERSON       PTSUNNY   88  69  53 SE3       30.10S
LIBERTY        CLOUDY    88  87  97 SE5       30.10S HX 120
SPARTANBURG    FAIR      91  66  43 E6        30.10S
CLEMSON        CLOUDY    85  70  60 W7        30.12S
GREENVILLE     CLOUDY    88  66  48 SE6       30.12S
GREENWOOD      MOSUNNY   90  65  43 SE7       30.09F
GREER          MOSUNNY   87  69  54 SE5       30.10F
ROCK HILL      MOSUNNY   89  67  47 VRB5      30.11F
LAURENS        MOCLDY    90  52  27 E5        30.09F


...CENTRAL SOUTH CAROLINA...

CITY           SKY/WX    TMP DP  RH WIND       PRES   REMARKS
COLUMBIA APT   MOSUNNY   93  59  31 SE8       30.07F
COLUMBIA OWENS SUNNY     93  61  34 SE5       30.09S
DARLINGTON     SUNNY     91  63  38 S5        30.10S
FLORENCE       MOSUNNY   92  65  40 SE10      30.10S
MCENTIRE ANGB  SUNNY     92  63  37 SE8       30.09F
ORANGEBURG     SUNNY     91  65  41 SE8       30.08F
SUMTER SHAW    SUNNY     92  66  42 SE10      30.08F
NEWBERRY       FAIR      91  57  31 E7        30.11S
AIKEN          LGT RAIN  90  70  51 SE9       30.11S HX  95
BARNWELL       FAIR      91  70  49 SE12      30.08S HX  97
MANNING        FAIR      90  72  55 S5        30.10S HX  96
CAMDEN         FAIR      90  61  37 SE3       30.10F
LANCASTER      FAIR      90  63  40 S7        30.10F HAZE
WINNSBORO      FAIR      90  61  37 E8        30.09F


...EASTERN AND COASTAL SOUTH CAROLINA...

CITY           SKY/WX    TMP DP  RH WIND       PRES   REMARKS
MYRTLE BEACH   MOSUNNY   86  73  66 SE10      30.13F
N MYRTLE BCH   SUNNY     84  73  69 SE10      30.13F
CONWAY         FAIR      86  72  62 E7        30.13S
HARTSVILLE     FAIR      91  28  10 S6        30.12S
FLORENCE       MOSUNNY   92  65  40 SE10      30.10S
DARLINGTON     SUNNY     91  63  38 S5        30.10S
CHARLESTON APT MOSUNNY   88  72  58 E12       30.11S
MOUNT PLEASANT FAIR      84  75  74 E7        30.11S
WALTERBORO     PTCLDY    90  64  43 SE6       30.10S
BEAUFORT       PTSUNNY   89  75  63 MISG      30.10S HX  99


...EASTERN GEORGIA...

CITY           SKY/WX    TMP DP  RH WIND       PRES   REMARKS
AUGUSTA BUSH F MOSUNNY   93  68  43 SE8       30.05F HX  97
AUGUSTA DANIEL SUNNY     94  66  39 E8        30.07F HX  97
THOMSON        SUNNY     94  73  49 S5        30.11S HX 103
WASHINGTON     FAIR      95  73  49 S5        30.08S HX 105
SYLVANIA       CLEAR     88  72  57 SE7       30.08F
STATESBORO     SUNNY     91  71  51 SE8       30.07F HX  97
SAVANNAH       MOSUNNY   88  72  58 SE10      30.09S


...SOUTHERN NORTH CAROLINA...

CITY           SKY/WX    TMP DP  RH WIND       PRES   REMARKS
CHARLOTTE      PTSUNNY   90  64  42 W6        30.11F
MONROE         SUNNY     91  61  36 VRB3      30.10F
WADESBORO      CLEAR     91  60  34 CALM      30.10S
ROCKINGHAM     CLEAR     90  64  41 S6        30.10F
RUTHERFORDTON  MOSUNNY   87  67  51 SE7       30.13S
ASHEVILLE      CLOUDY    81  67  62 SE7       30.19S

$$


USA.gov is the U.S. government's official web portal to all federal, state and local government web resources and services.